STARLINK-4633 (53964 NORAD) Tracking and Keplerian Element Data

This shows tracking and keplerian element data for the satellite.

Feedback or suggestion? Click here.




ElementValue
Catalog53964
NameSTARLINK-4633
Epoch Orbit130
Epoch Day324.91667824
Epoch Year2022
RAAN232.711
Inclination53.2156
Eccentricity0.0001782
Argument of Perigee47.6136
Mean Anonmoly186.7814
Mean Motion15.08840951
Decay Rate-0.00024707
L11 53964U 22125A 22324.91667824 -.00024707 00000+0 -15395-2 0 9991
L22 53964 53.2156 232.7110 0001782 47.6136 186.7814 15.08840951 1302



Live tracking and technical data element details for STARLINK-4633 (NORAD 53964). STARLINK-4633 can be tracked NOW for your location showing map with azimuth and elevation plus other details from your city location.







IsCatalogInMostPopularTable: catalog: 53964, numindb: 6
Update: records affected: 1



GetName: 53964 STARLINK-4633

Hit Count: updated at: Fri, 09 Dec 2022 18:16:21 GMT